Location: Newark
(42.8481°N, 0.4872°E)
Time: 09:37:49
(UTC+00:00)

Vanguard 1 - Pass Details

Date: 29 October 2020
Orbit: 650 x 3833 km, 34.2° (Epoch: 26 November)

Event Time Altitude Azimuth Distance (km) Brightness Sun altitude
Rises 09:35:48 0° 195° (SSW) 6,611 14.9 26.5°
Reaches altitude 10° 09:40:55 10° 183° (S) 6,017 15.0 27.1°
Maximum altitude 09:56:18 28° 134° (SE) 5,437 15.9 28.5°
Drops below altitude 10° 10:13:28 10° 87° (E) 6,822 14.7 30.0°
Sets 10:19:39 0° 77° (ENE) 7,622 14.7 30.4°
